| time (UTC) | temp C | wind direction | speed KPH | gust KPH | rain 1hr cm | rain 24hr cm | rain mn cm | humidity % | barometer mb |
| 20260505224531 | 26 | 8 | 6.4 | 17.7 | 0.00 | 0.00 | 0.00 | 40 | 1012.6 |
| 20260505223029 | 26 | 3 | 6.4 | 16.1 | 0.00 | 0.00 | 0.00 | 41 | 1012.7 |
| 20260505221532 | 27 | 345 | 8.0 | 17.7 | 0.00 | 0.00 | 0.00 | 40 | 1012.8 |
| 20260505214641 | 27 | 357 | 4.8 | 11.3 | 0.00 | 0.00 | 0.00 | 40 | 1013.1 |
| 20260505213143 | 26 | 17 | 4.8 | 11.3 | 0.00 | 0.00 | 0.00 | 41 | 1013.2 |
| 20260505211535 | 26 | 25 | 4.8 | 12.9 | 0.00 | 0.00 | 0.00 | 42 | 1013.3 |
| 20260505204532 | 25 | 58 | 4.8 | 14.5 | 0.00 | 0.00 | 0.00 | 45 | 1013.6 |
| 20260505203029 | 25 | 17 | 4.8 | 16.1 | 0.00 | 0.00 | 0.00 | 46 | 1013.7 |
| 20260505201609 | 25 | 24 | 4.8 | 12.9 | 0.00 | 0.00 | 0.00 | 47 | 1013.7 |
| 20260505200037 | 25 | 26 | 4.8 | 12.9 | 0.00 | 0.00 | 0.00 | 47 | 1013.9 |
| 20260505193030 | 24 | 81 | 3.2 | 11.3 | 0.00 | 0.00 | 0.00 | 50 | 1014.0 |
| 20260505191531 | 24 | 76 | 4.8 | 11.3 | 0.00 | 0.00 | 0.00 | 51 | 1014.0 |
| 20260505184534 | 22 | 74 | 4.8 | 11.3 | 0.00 | 0.00 | 0.00 | 54 | 1014.3 |
| 20260505183030 | 22 | 28 | 4.8 | 14.5 | 0.00 | 0.00 | 0.00 | 54 | 1014.4 |
| 20260505181531 | 21 | 27 | 4.8 | 12.9 | 0.00 | 0.00 | 0.00 | 57 | 1014.3 |
| 20260505180030 | 21 | 7 | 6.4 | 12.9 | 0.00 | 0.00 | 0.00 | 58 | 1014.3 |
| 20260505174535 | 21 | 53 | 4.8 | 11.3 | 0.00 | 0.00 | 0.00 | 60 | 1014.3 |
| 20260505173035 | 20 | 96 | 6.4 | 14.5 | 0.00 | 0.00 | 0.00 | 62 | 1014.3 |
| 20260505170043 | 18 | 79 | 6.4 | 12.9 | 0.00 | 0.00 | 0.00 | 69 | 1014.3 |
| 20260505164535 | 17 | 76 | 6.4 | 12.9 | 0.00 | 0.00 | 0.00 | 71 | 1014.3 |
| 20260505163030 | 17 | 82 | 4.8 | 11.3 | 0.00 | 0.00 | 0.00 | 71 | 1014.3 |
| 20260505161536 | 17 | 66 | 3.2 | 9.7 | 0.00 | 0.00 | 0.00 | 74 | 1014.3 |
| 20260505153028 | 13 | 35 | 6.4 | 9.7 | 0.00 | 0.00 | 0.00 | 90 | 1014.0 |
| 20260505124530 | 7 | 214 | 3.2 | 8.0 | 0.00 | 0.00 | 0.00 | 94 | 1012.6 |
| 20260505123141 | 7 | 179 | 3.2 | 8.0 | 0.00 | 0.00 | 0.00 | 93 | 1012.5 |
| 20260505121543 | 7 | 229 | 3.2 | 6.4 | 0.00 | 0.00 | 0.00 | 93 | 1012.4 |
| 20260505120033 | 7 | 229 | 3.2 | 8.0 | 0.00 | 0.00 | 0.00 | 93 | 1012.4 |
| 20260505114535 | 7 | 202 | 3.2 | 6.4 | 0.00 | 0.00 | 0.00 | 92 | 1012.3 |
| 20260505111607 | 7 | 202 | 0.0 | 3.2 | 0.00 | 0.00 | 0.00 | 92 | 1012.1 |
| 20260505101608 | 8 | 205 | 4.8 | 9.7 | 0.00 | 0.00 | 0.00 | 91 | 1011.8 |
| 20260505100107 | 9 | 202 | 4.8 | 8.0 | 0.00 | 0.00 | 0.00 | 91 | 1011.7 |
| 20260505094651 | 8 | 202 | 4.8 | 9.7 | 0.00 | 0.00 | 0.00 | 90 | 1011.6 |
| 20260505093032 | 8 | 230 | 4.8 | 8.0 | 0.00 | 0.00 | 0.00 | 90 | 1011.6 |
| 20260505090036 | 9 | 204 | 1.6 | 4.8 | 0.00 | 0.00 | 0.00 | 89 | 1011.4 |
| 20260505084606 | 9 | 211 | 3.2 | 6.4 | 0.00 | 0.00 | 0.00 | 88 | 1011.5 |
| 20260505081606 | 10 | 237 | 0.0 | 6.4 | 0.00 | 0.00 | 0.00 | 86 | 1011.4 |
| 20260505080036 | 10 | 229 | 1.6 | 6.4 | 0.00 | 0.00 | 0.00 | 86 | 1011.5 |
| 20260505074530 | 11 | 196 | 3.2 | 6.4 | 0.00 | 0.00 | 0.00 | 84 | 1011.4 |
| 20260505073031 | 11 | 111 | 1.6 | 6.4 | 0.00 | 0.00 | 0.00 | 82 | 1011.2 |
| 20260505071532 | 12 | 181 | 3.2 | 6.4 | 0.00 | 0.00 | 0.00 | 79 | 1011.1 |
| 20260505064532 | 13 | 286 | 1.6 | 6.4 | 0.00 | 0.00 | 0.00 | 72 | 1011.0 |
| 20260505063030 | 15 | 243 | 0.0 | 4.8 | 0.00 | 0.00 | 0.00 | 69 | 1011.0 |
| 20260505061533 | 15 | 268 | 1.6 | 8.0 | 0.00 | 0.00 | 0.00 | 69 | 1011.0 |
| 20260505060036 | 14 | 288 | 3.2 | 11.3 | 0.00 | 0.00 | 0.00 | 69 | 1010.9 |
| 20260505054529 | 14 | 292 | 1.6 | 9.7 | 0.00 | 0.00 | 0.00 | 69 | 1010.9 |
| 20260505053032 | 14 | 216 | 0.0 | 4.8 | 0.00 | 0.00 | 0.00 | 67 | 1010.8 |
| 20260505051537 | 15 | 111 | 0.0 | 4.8 | 0.00 | 0.00 | 0.00 | 62 | 1010.7 |
| 20260505041530 | 18 | 322 | 1.6 | 14.5 | 0.00 | 0.00 | 0.00 | 50 | 1010.1 |
| 20260505040049 | 18 | 268 | 3.2 | 16.1 | 0.00 | 0.00 | 0.00 | 49 | 1009.9 |
| 20260505031528 | 20 | 283 | 9.7 | 25.7 | 0.00 | 0.00 | 0.00 | 45 | 1009.1 |
| 20260505030032 | 20 | 279 | 9.7 | 27.4 | 0.00 | 0.00 | 0.00 | 43 | 1008.9 |
| 20260505024605 | 21 | 287 | 8.0 | 17.7 | 0.00 | 0.00 | 0.00 | 40 | 1008.7 |
| 20260505021530 | 22 | 286 | 12.9 | 32.2 | 0.00 | 0.00 | 0.00 | 36 | 1008.7 |
| 20260505014607 | 23 | 285 | 12.9 | 27.4 | 0.00 | 0.00 | 0.00 | 35 | 1008.6 |
| 20260505011535 | 25 | 289 | 12.9 | 25.7 | 0.00 | 0.00 | 0.00 | 34 | 1008.6 |
| 20260505010035 | 25 | 288 | 12.9 | 30.6 | 0.00 | 0.00 | 0.00 | 32 | 1008.6 |
| 20260505003111 | 26 | 291 | 12.9 | 29.0 | 0.00 | 0.00 | 0.00 | 31 | 1008.5 |
| 20260505001531 | 27 | 294 | 11.3 | 24.1 | 0.00 | 0.00 | 0.00 | 30 | 1008.6 |
| 20260505000145 | 27 | 290 | 11.3 | 25.7 | 0.00 | 0.00 | 0.00 | 32 | 1008.6 |
| 20260504234533 | 27 | 318 | 9.7 | 20.9 | 0.00 | 0.00 | 0.00 | 36 | 1008.5 |
| 20260504233033 | 27 | 17 | 9.7 | 17.7 | 0.00 | 0.00 | 0.00 | 35 | 1008.5 |
| 20260504231535 | 27 | 24 | 9.7 | 19.3 | 0.00 | 0.00 | 0.00 | 33 | 1008.7 |